Details From KINW - WINSLOW LINDBERGH RGNL
To KRQE - WINDOW ROCK
Flight Number -
Tags decoded
Created
Modified
Stats Distance 90 nm / 166 km
Max Altitude 0 ft / 0 m
Waypoints 2
Social Downloads 1
Likes 0
Share VATSIM

Download

Looking for another format? Having issues loading an existing format? Contact us
Advertisement - Login to hide

Notes

Requested: KINW KRQE

Route

KINW KRQE

ID Type Via Altitude (ft/m) Position (lat/lon) Dist (leg/tot) Name
O KINW APT - 0 / 0 35.02159 / -110.72455 - / 0 nm WINSLOW LINDBERGH RGNL
O KRQE APT - 0 / 0 35.65207 / -109.06738 89 / 89 nm WINDOW ROCK

Altitude Profile

Advertisement - Login to hide

KINW

Details ICAO KINW (INW)
Name WINSLOW LINDBERGH RGNL
Region United States
Timezone America/Phoenix (UTC-7.0)
Stats Elevation 4,941 ft / 1,506 m (AMSL)
Location 35.021600° -110.725000°
Runways 3
Magnetic Variation 9.913° E

METAR

KINW 310056Z AUTO 35006KT 10SM CLR 17/M06 A3015 RMK AO2 SLP189 T01671056

Decode

TAF

TAF KINW 302332Z 3100/3124 36009KT P6SM SKC FM310200 VRB05KT P6SM SKC

Decode

Departure Runways

ID Width Length Bearing (true/mag) Surface Threshold Overrun Markings Lighting
04 150 ft / 46 m 7,491 ft / 2,283 m 58.49° / 48.58° ASPHALT 0 ft / 0 m 0 ft / 0 m APP EDGE THRESHOLD
11 150 ft / 46 m 7,092 ft / 2,162 m 119.77° / 109.86° ASPHALT 190 ft / 58 m 398 ft / 121 m APP EDGE THRESHOLD REIL-OMNI
17 150 ft / 46 m 6,102 ft / 1,860 m 184.66° / 174.75° ASPHALT 0 ft / 0 m 0 ft / 0 m APP
22 150 ft / 46 m 7,491 ft / 2,283 m 238.50° / 228.59° ASPHALT 1,258 ft / 383 m 0 ft / 0 m APP EDGE THRESHOLD REIL-OMNI
29 150 ft / 46 m 7,092 ft / 2,162 m 299.79° / 289.87° ASPHALT 373 ft / 114 m 0 ft / 0 m APP EDGE THRESHOLD
35 150 ft / 46 m 6,102 ft / 1,860 m 4.66° / 354.74° ASPHALT 0 ft / 0 m 0 ft / 0 m APP

KRQE

Details ICAO KRQE
Name WINDOW ROCK
Region United States
Timezone America/Denver (UTC-6.0)
Stats Elevation 6,742 ft / 2,055 m (AMSL)
Location 35.652100° -109.067000°
Runways 1
Magnetic Variation 9.388° E

METAR

KRQE 310053Z AUTO 28008KT 10SM CLR 12/M10 A3018 RMK AO2 SLP178 T01221100

Decode

TAF

Not found

Destination Runways

ID Width Length Bearing (true/mag) Surface Threshold Overrun Markings Lighting
02 75 ft / 23 m 7,006 ft / 2,135 m 33.93° / 24.55° ASPHALT 0 ft / 0 m 0 ft / 0 m APP EDGE THRESHOLD REIL-OMNI
20 75 ft / 23 m 7,006 ft / 2,135 m 213.94° / 204.55° ASPHALT 0 ft / 0 m 0 ft / 0 m APP EDGE THRESHOLD

Popular Alternatives